Find Starlink 30544

NORAD ID: 58055 Int'l Des: 2023-158 Owner: SPXS Country: US Constellation: starlink operational
LEOCIRCULAR

当前视图

正在加载3D地球...

About Starlink 30544

Starlink 30544 (NORAD 58055) is a starlink constellation satellite (v2 mini) launched Oct 13, 2023 by SPXS of US. It operates in LEO, CIRCULAR orbit with a mass of 730.00 kg.

关于 Starlink 30544

正在加载描述...

即将过境

Passes for default location (London). Set your location on the main map for personalized predictions.

高度历史

Loading altitude history...

两行轨道根数

1 58055U 23158E 26199.85469192 .00000953 00000-0 44163-4 0 9992
2 58055 43.0053 5.9835 0001761 258.6060 101.4593 15.27574883153633
Epoch: Jul 18, 2026 • Age: 19 hours

当前状态

高度 485.4 km
远地点 / 近地点 N/A
速度 7.63 km/s
星下点 34.95°N, 42.43°W
发射日期 Oct 13, 2023
运行时间 2.7 years
类型 internet

技术详情

分类 Payload
质量 730.00 kg
干质量 700.00 kg
总质量 730.00 kg
长度 0.30 m
直径 4.10 m
跨度 29.00 m
形状 Box + pan
制造商 SPXS
平台类型 Starlink V2M
阶段状态 In Orbit
所有者/国家 SPXS/US

Most Searched